Saginaw, MI

8:17 AM EDT on August 21, 2017 (GMT -0400)
MBS International

Weather History for KMBS - November, 2014

Change the Weather History Date:

Saturday, November 22, 2014

  Actual Average Record
Temperature  
Mean Temperature 35 °F 36 °F  
Max Temperature 47 °F 43 °F 62 °F (2012)
Min Temperature 23 °F 29 °F 17 °F (2000)
Degree Days  
Heating Degree Days 30    
Month to date heating degree days 673  
Since 1 July heating degree days 1264  
Cooling Degree Days 0    
Month to date cooling degree days 0  
Year to date cooling degree days 539  
Moisture  
Dew Point 30 °F    
Average Humidity 74    
Maximum Humidity 93    
Minimum Humidity 55    
Precipitation  
Precipitation 0.02 in 0.09 in 1.70 in (2010)
Month to date precipitation 0.50 2.05  
Year to date precipitation 28.69 29.03  
Snow  
Snow 0.00 in - - ()
Month to date snowfall 2.5  
Since 1 July snowfall 2.5  
Since 1 September snowfall 2.5  
Snow Depth 2.00 in    
Sea Level Pressure  
Sea Level Pressure 30.00 in    
Wind  
Wind Speed 14 mph (SW)    
Max Wind Speed 23 mph    
Max Gust Speed 27 mph    
Visibility 6 miles    
Events Rain    
T = Trace of Precipitation, MM = Missing Value Source: NWS Daily Summary

Daily Weather History Graph

Daily Weather History Graph

Search for Another Location

Airport or City:

Trip Planner

Search our weather history database for the weather conditions in past years. The results will help you decide how hot, cold, wet, or windy it might be!

Date:

Astronomy

Nov. 22, 2014 Rise Set
Actual Time 7:38 AM EST 5:05 PM EST
Civil Twilight 7:07 AM EST 5:37 PM EST
Nautical Twilight 6:32 AM EST 6:12 PM EST
Astronomical Twilight 5:58 AM EST 6:46 PM EST
Moon 7:33 AM EST (11/22) 5:36 PM EST (11/22)
Length of Visible Light 10h 29m
Length of Day
9h 26m
New Moon, 0% of the Moon is Illuminated
Nov 22
New Moon
Nov 29
First Quarter
Dec 6
Full
Dec 14
Last Quarter
Dec 21
New

Hourly Weather History & Observations

Time (EST) Temp. Windchill Dew Point Humidity Pressure Visibility Wind Dir Wind Speed Gust Speed Precip Events Conditions
12:53 AM 24.1 °F 13.1 °F 12.0 °F 60% 30.26 in 10.0 mi South 11.5 mph - N/A   Clear
1:53 AM 23.0 °F 11.1 °F 12.0 °F 63% 30.22 in 10.0 mi SSW 12.7 mph 18.4 mph N/A   Clear
2:53 AM 25.0 °F 14.8 °F 12.9 °F 60% 30.19 in 10.0 mi South 10.4 mph - N/A   Overcast
3:42 AM 26.1 °F 15.6 °F 12.9 °F 58% 30.13 in 10.0 mi SSW 11.5 mph - N/A   Overcast
3:53 AM 27.0 °F 15.6 °F 12.9 °F 56% 30.15 in 10.0 mi SSW 13.8 mph - N/A   Overcast
4:09 AM 27.0 °F 16.7 °F 14.0 °F 58% 30.12 in 10.0 mi SSW 11.5 mph - N/A   Overcast
4:31 AM 27.0 °F 16.1 °F 14.0 °F 58% 30.12 in 10.0 mi SSW 12.7 mph - N/A   Overcast
4:44 AM 28.0 °F 18.1 °F 14.0 °F 56% 30.11 in 10.0 mi SSW 11.5 mph - N/A   Overcast
4:53 AM 28.0 °F 18.6 °F 15.1 °F 58% 30.13 in 10.0 mi SSW 10.4 mph - N/A   Overcast
5:23 AM 28.9 °F 20.4 °F 15.1 °F 56% 30.08 in 10.0 mi South 9.2 mph - N/A   Overcast
5:53 AM 28.9 °F 20.4 °F 16.0 °F 58% 30.10 in 10.0 mi SSW 9.2 mph - 0.00 in   Overcast
6:53 AM 32.0 °F 23.6 °F 19.0 °F 59% 30.08 in 10.0 mi SSW 10.4 mph - 0.00 in   Overcast
7:49 AM 33.8 °F 24.8 °F 24.8 °F 70% 30.04 in 2.5 mi SSW 12.7 mph - 0.00 in Rain Light Freezing Rain
7:53 AM 33.1 °F 23.0 °F 26.1 °F 75% 30.06 in 2.5 mi SW 15.0 mph - 0.00 in Rain Light Freezing Rain
8:27 AM 33.1 °F 23.9 °F 27.0 °F 78% 30.02 in 2.5 mi SSW 12.7 mph - 0.01 in Rain Light Rain
8:34 AM 34.0 °F 24.6 °F 28.0 °F 79% 30.02 in 2.5 mi SSW 13.8 mph - 0.01 in Rain Light Freezing Rain
8:48 AM 33.8 °F 24.3 °F 28.4 °F 81% 30.02 in 5.0 mi SSW 13.8 mph 20.7 mph 0.01 in Rain Light Freezing Rain
8:53 AM 34.0 °F 26.0 °F 28.9 °F 82% 30.04 in 5.0 mi SSW 10.4 mph - 0.02 in Rain Light Freezing Rain
9:14 AM 34.0 °F 24.6 °F 30.0 °F 85% 30.01 in 7.0 mi SW 13.8 mph 21.9 mph 0.00 in   Overcast
9:53 AM 35.1 °F 24.5 °F 32.0 °F 89% 30.02 in 7.0 mi SW 18.4 mph - 0.00 in   Overcast
10:03 AM 35.1 °F 24.8 °F 32.0 °F 89% 29.99 in 7.0 mi SW 17.3 mph - N/A   Overcast
10:53 AM 37.0 °F 26.7 °F 33.1 °F 86% 30.00 in 8.0 mi SW 19.6 mph - N/A   Overcast
11:53 AM 37.9 °F 28.9 °F 35.1 °F 89% 29.97 in 4.0 mi SW 16.1 mph - N/A   Overcast
12:53 PM 39.0 °F 29.6 °F 36.0 °F 89% 29.94 in 4.0 mi SW 18.4 mph - N/A   Overcast
1:53 PM 39.0 °F 29.6 °F 36.0 °F 89% 29.92 in 2.0 mi SW 18.4 mph - 0.00 in Rain Light Rain
2:53 PM 39.9 °F 30.8 °F 37.0 °F 89% 29.91 in 2.0 mi SW 18.4 mph 21.9 mph 0.00 in   Overcast
3:53 PM 39.9 °F 32.5 °F 37.9 °F 93% 29.90 in 2.0 mi SW 12.7 mph - N/A   Overcast
4:53 PM 41.0 °F 33.5 °F 37.9 °F 89% 29.91 in 2.0 mi SW 13.8 mph - N/A   Overcast
5:53 PM 42.1 °F 36.1 °F 39.9 °F 92% 29.90 in 2.0 mi SW 10.4 mph 17.3 mph 0.00 in Rain Light Rain
6:04 PM 42.1 °F 36.1 °F 39.9 °F 92% 29.88 in 2.0 mi SW 10.4 mph - 0.00 in   Overcast
6:53 PM 43.0 °F 36.8 °F 41.0 °F 93% 29.89 in 2.0 mi SSW 11.5 mph - 0.00 in   Overcast
7:53 PM 45.0 °F 38.9 °F 42.1 °F 90% 29.89 in 3.0 mi SW 12.7 mph 23.0 mph N/A   Overcast
8:53 PM 46.4 °F 40.7 °F 44.6 °F 93% 29.87 in 3.0 mi SW 12.7 mph - N/A   Overcast
9:53 PM 46.9 °F - 44.1 °F 90% 29.88 in 3.0 mi SW 16.1 mph - N/A   Overcast
10:37 PM 46.9 °F - 44.1 °F 90% 29.87 in 3.0 mi SW 16.1 mph - N/A   Overcast
10:53 PM 46.9 °F - 44.1 °F 90% 29.90 in 6.0 mi SW 13.8 mph - N/A   Overcast
11:11 PM 46.9 °F - 44.1 °F 90% 29.88 in 6.0 mi SW 12.7 mph - N/A   Overcast
11:28 PM 46.9 °F - 44.1 °F 90% 29.88 in 6.0 mi SW 12.7 mph - N/A   Overcast
11:46 PM 46.9 °F - 44.1 °F 90% 29.89 in 6.0 mi SW 12.7 mph - N/A   Overcast
11:53 PM 46.0 °F 41.0 °F 43.0 °F 89% 29.91 in 6.0 mi SW 10.4 mph - N/A   Overcast